Weather in Roznava

Slovakia     48°39′44″N   20°31′57″E
temp.,
°C
wind,
m/s
gust,
m/s
humid.,
%
clouds,
%
prec.,
mm/h
press.,
hPa
HPBL,
m
21 may, sat
sat2123:00+14wnw119311 0.0 101711
02:00+13ssw119446 0.0 101523
05:00+13ssw2396100 0.4 101560
08:00+15sw2392100 0.5 1014159
11:00+22w5948100 0.1 10131795
14:00+22wnw710293 0.1 10132038
17:00+20wnw593520 0.0 10131958
20:00+13wnw26585 0.0 1015153
22 may, sun
sun2223:00+9n226954 0.0 101631
02:00+7n228548 0.0 101624
05:00+6nnw22895 0.0 101645
08:00+13nnw235677 0.0 1014889
11:00+17wnw1339100 0.0 10131964
14:00+19nw233218 0.0 10112360
17:00+17nnw223750 0.0 10111898
20:00+10nne21686 0.0 101216
23 may, mon
mon2323:00+7nne22854 0.0 101438
02:00+6n22915 0.0 101432
05:00+5n22895 0.0 101531
08:00+12nne11605 0.0 1013568
11:00+17s024244 0.0 10121802
14:00+18s2339100 0.0 10102104
17:00+17sse2146100 0.0 10101296
20:00+12se2276100 0.0 101039
24 may, tue
tue2423:00+9e118714 0.0 101112
02:00+8ese0192100 0.0 101110
05:00+8ssw1189100 0.0 101117
08:00+11sw1278100 0.1 1011196
11:00+10se0191100 1.1 101285
14:00+12s237493 1.1 1012345
17:00+14sse2258100 0.0 1012520
20:00+11sse117697 0.0 101210
25 may, wed
wed2523:00+9n2180100 0.0 101318
02:00+10nne117477 0.0 101313
05:00+9n117842 0.0 101313
08:00+15sse1160100 0.0 1013339
11:00+19s335278 0.0 1013990
14:00+21ssw575675 0.1 10121498
17:00+18sw388612 1.4 1011862
20:00+15sw24945 2.1 1011149